TimeEST,TemperatureF,Dew PointF,Humidity,Sea Level PressureIn,VisibilityMPH,Wind Direction,Wind SpeedMPH,Gust SpeedMPH,PrecipitationIn,Events,Conditions,WindDirDegrees,DateUTC
12:53 AM,77.0,73.0,88,30.07,10.0,SE,5.8,-,N/A,,Clear,130,2014-02-22 05:53:00
1:36 AM,77.0,73.0,88,30.05,10.0,SSE,6.9,-,N/A,,Mostly Cloudy,150,2014-02-22 06:36:00
1:53 AM,77.0,73.0,88,30.04,10.0,SSE,8.1,-,N/A,,Mostly Cloudy,150,2014-02-22 06:53:00
2:00 AM,77.0,73.0,88,30.04,10.0,SSE,8.1,-,N/A,,Scattered Clouds,150,2014-02-22 07:00:00
2:53 AM,77.0,72.0,84,30.03,10.0,SSE,4.6,-,N/A,,Clear,150,2014-02-22 07:53:00
3:53 AM,75.9,72.0,87,30.03,10.0,SSE,5.8,-,N/A,,Clear,150,2014-02-22 08:53:00
4:53 AM,75.9,72.0,87,30.03,10.0,SE,6.9,-,N/A,,Clear,140,2014-02-22 09:53:00
5:53 AM,75.9,72.0,87,30.05,10.0,SSE,3.5,-,N/A,,Clear,150,2014-02-22 10:53:00
6:53 AM,75.0,72.0,90,30.07,10.0,SE,3.5,-,N/A,,Clear,140,2014-02-22 11:53:00
7:53 AM,77.0,73.0,88,30.08,10.0,SE,3.5,-,N/A,,Clear,140,2014-02-22 12:53:00
8:53 AM,79.0,72.0,79,30.10,10.0,SSE,6.9,-,N/A,,Clear,150,2014-02-22 13:53:00
9:53 AM,81.0,72.0,74,30.11,10.0,SE,4.6,-,N/A,,Clear,140,2014-02-22 14:53:00
10:53 AM,81.0,71.1,72,30.12,10.0,SSE,6.9,-,N/A,,Clear,160,2014-02-22 15:53:00
11:53 AM,82.9,71.1,67,30.11,10.0,SE,5.8,-,N/A,,Clear,140,2014-02-22 16:53:00
12:53 PM,82.9,71.1,67,30.08,10.0,Variable,5.8,-,N/A,,Clear,0,2014-02-22 17:53:00
1:53 PM,82.9,71.1,67,30.05,10.0,SE,4.6,-,N/A,,Clear,140,2014-02-22 18:53:00
2:53 PM,82.0,70.0,67,30.02,10.0,Variable,4.6,-,N/A,,Clear,0,2014-02-22 19:53:00
3:53 PM,81.0,71.1,72,30.02,10.0,Variable,4.6,-,N/A,,Clear,0,2014-02-22 20:53:00
4:53 PM,80.1,70.0,71,30.02,10.0,SE,4.6,-,N/A,,Clear,140,2014-02-22 21:53:00
5:53 PM,79.0,70.0,74,30.03,10.0,Calm,Calm,-,N/A,,Clear,0,2014-02-22 22:53:00
6:53 PM,77.0,69.1,76,30.04,10.0,ESE,3.5,-,N/A,,Clear,110,2014-02-22 23:53:00
7:53 PM,77.0,69.1,76,30.05,10.0,East,3.5,-,N/A,,Clear,80,2014-02-23 00:53:00
8:53 PM,75.9,70.0,82,30.06,10.0,East,3.5,-,N/A,,Clear,80,2014-02-23 01:53:00
9:53 PM,75.0,70.0,84,30.08,10.0,ENE,3.5,-,N/A,,Clear,60,2014-02-23 02:53:00
10:53 PM,75.9,70.0,82,30.08,10.0,East,4.6,-,N/A,,Clear,80,2014-02-23 03:53:00
11:53 PM,75.0,70.0,84,30.08,10.0,ENE,3.5,-,N/A,,Clear,70,2014-02-23 04:53:00